Location: Leipzig
(51.3392°N, 12.3528°E)
Time: 03:10:31
(UTC+01:00)

ISS - Visible Passes

Search period start: 24 November 2017 00:00
Search period end: 04 December 2017 00:00
Orbit: 402 x 407 km, 51.6° (Epoch: 24 November)

Date Brightness Start Highest point End Pass type
(mag) Time Alt. Az. Time Alt. Az. Time Alt. Az.
28 Nov -1.5 18:16:40 10° S 18:17:50 15° SSE 18:17:50 15° SSE visible
29 Nov -1.4 17:25:56 10° SSE 17:26:48 11° SE 17:27:40 10° ESE visible
29 Nov -1.2 18:59:29 10° SW 19:00:25 17° SW 19:00:25 17° SW visible
30 Nov -2.6 18:07:27 10° SSW 18:10:15 29° SSE 18:10:15 29° SSE visible
01 Dec -2.0 17:15:40 10° SSW 17:18:09 20° SE 17:20:01 13° ESE visible
01 Dec -1.8 18:50:57 10° WSW 18:52:40 28° WSW 18:52:40 28° WSW visible
02 Dec -3.4 17:58:41 10° SW 18:01:52 49° SSE 18:02:23 43° SE visible
02 Dec -0.2 19:34:58 10° W 19:35:02 10° W 19:35:02 10° W visible
03 Dec -2.7 17:06:32 10° SW 17:09:32 34° SSE 17:12:04 13° E visible
03 Dec -2.4 18:42:32 10° W 18:44:42 38° W 18:44:42 38° W visible
